Regional Weather Roundup
Issued by NWS Green Bay, WI

Home | Current Version | Previous Version | Graphics & Text | Print | Product List | Glossary Off
Versions: 1 2 3 4 5 6 7 8 9 10 11 12 13 14 15 16 17 18 19 20 21 22 23 24 25 26 27 28 29 30 31 32 33 34 35 36 37 38 39 40 41 42 43 44 45 46 47 48 49 50

000
ASUS43 KGRB 201759
RWRGRB

NORTH-CENTRAL AND NORTHEAST WISCONSIN REGIONAL WEATHER ROUNDUP
NATIONAL WEATHER SERVICE GREEN BAY WI
1200 PM CST SAT DEC 20 2014

WIZ005-009-010>012-018-019-201900-
NORTH CENTRAL WISCONSIN

CITY           SKY/WX    TMP DP  RH WIND       PRES   REMARKS
IRONWOOD       CLOUDY    28  25  86 SE7       30.12F
MANITOWISH WTR NOT AVBL
ARBOR VITAE    NOT AVBL
EAGLE RIVER    NOT AVBL
LAND O LAKES   NOT AVBL
RHINELANDER    CLOUDY    25  23  92 S6        30.16F FOG
PHILLIPS       CLOUDY    27  24  89 S6        30.15F
ANTIGO         NOT AVBL
TOMAHAWK       NOT AVBL
MERRILL        NOT AVBL
$$

WIZ013-073-201900-
NORTHEAST WISCONSIN

CITY           SKY/WX    TMP DP  RH WIND       PRES   REMARKS
IRON MOUNTAIN  CLOUDY    24  21  88 SE5       30.20F
MARINETTE      CLOUDY    27  23  86 CALM      30.25F
$$

WIZ017-030-035>037-045-201900-
CENTRAL WISCONSIN

CITY           SKY/WX    TMP DP  RH WIND       PRES   REMARKS
MEDFORD        NOT AVBL
WAUSAU         CLOUDY    27  24  89 SE5       30.18F FOG
MOSINEE        CLOUDY    27  27 100 SE5       30.20F
MARSHFIELD     CLOUDY    29  24  82 S7        30.18F HAZE
WISC RAPIDS    CLOUDY    30  23  75 SE5       30.22F
STEVENS POINT  NOT AVBL
WAUPACA        CLOUDY    31  25  78 S3        30.24S
SHAWANO        CLOUDY    29  25  86 CALM      30.24F
CLINTONVILLE   CLOUDY    30  25  80 CALM      30.24F
$$

WIZ038-039-048-051-201900-
FOX VALLEY

CITY           SKY/WX    TMP DP  RH WIND       PRES   REMARKS
NWS GREEN BAY  CLOUDY    29  23  78 CALM      30.25F HAZE
APPLETON       CLOUDY    28  21  74 CALM      30.24F
OSHKOSH        CLOUDY    28  23  81 S3        30.24F HAZE
FOND DU LAC    CLOUDY    29  22  75 CALM      30.24F
$$

WIZ022-050-052-201900-
EAST CENTRAL WISCONSIN

CITY           SKY/WX    TMP DP  RH WIND       PRES   REMARKS
STURGEON BAY   CLOUDY    27  21  80 NW3       30.26F
MANITOWOC      NOT AVBL
SHEBOYGAN      CLOUDY    30  22  72 N5        30.24F
$$

LMZ563-521-522-541>543-201900-
LAKESHORE

STATION/POSITION TIME  TEMP    WIND        PRES    VSBY  WAVE
                       AIR SEA DIR/SP/G                  HT/PER
                 (UTC) (F)     (DEG/KT/KT) (MB)    (MI)  (FT/S)
SHEBOYGAN LKSHOR 1700   30 34  340/  4/  4 1025.6F
KEWAUNEE LKSHORE 1700   30     290/  2/  5 1023.6F
ALGOMA MARINA    1700          350/  7/  8   N/A
NORTHPORT PIER   1700   30     320/  7/  8 1024.7F
CHAMBERS ISLAND  1700   27     200/  3/  6 1025.1F
MENOMINEE LKSHOR 1700   27     210/  2/  4 1025.2F
$$


USA.gov is the U.S. government's official web portal to all federal, state and local government web resources and services.